Find Starlink 32780

NORAD ID: 62746 Int'l Des: 2025-014 Owner: SPXS Country: US Constellation: starlink operational
LEOCIRCULAR

現在のビュー

3D地球を読み込み中...

About Starlink 32780

Starlink 32780 (NORAD 62746) is a starlink constellation satellite (v2 mini) launched Jan 21, 2025 by SPXS of US. It operates in LEO, CIRCULAR orbit with a mass of 730.00 kg.

Starlink 32780について

説明を読み込み中...

次回通過

Passes for default location (London). Set your location on the main map for personalized predictions.

高度履歴

Loading altitude history...

軌道要素

1 62746U 25014M 26166.70726575 .00022557 00000-0 82636-3 0 9996
2 62746 42.9947 321.2034 0000246 178.0782 182.0070 15.27594263 78245
Epoch: Jun 15, 2026 • Age: 28 hours

現在のステータス

高度 494.5 km
速度 7.62 km/s
衛星直下点 -38.82°S, 36.39°E
打ち上げ日 Jan 21, 2025
運用期間 1.3 years
タイプ internet

技術仕様

分類 Payload
質量 730.00 kg
乾燥質量 700.00 kg
総質量 730.00 kg
長さ 0.30 m
直径 4.10 m
スパン 29.00 m
形状 Box + pan
製造者 SPXS
バスタイプ Starlink V2M
フェーズステータス In Orbit
所有者/国 SPXS/US

Most Searched